N2ZVN Weather Reports


time (UTC)temp
F
wind
direction
speed
knots
gust
knots
rain 1hr
in
rain 24hr
in
rain mn
in
humidity
%
barometer
mb
20260509112221 47 87 0.9 0.9 0.00 0.00 0.00 71 1009.0
20260509111718 47 87 0.9 0.9 0.00 0.00 0.00 71 1008.7
20260509111215 47 87 0.9 0.9 0.00 0.00 0.00 71 1008.8
20260509110713 46 87 0.0 0.9 0.00 0.00 0.00 72 1008.9
20260509110209 46 87 0.9 0.9 0.00 0.00 0.00 73 1009.0
20260509105707 46 87 0.9 0.9 0.00 0.00 0.00 72 1008.8
20260509105204 46 87 0.9 0.9 0.00 0.00 0.00 72 1008.9
20260509104701 46 87 0.9 0.9 0.00 0.00 0.00 72 1008.7
20260509104158 46 87 0.9 0.9 0.00 0.00 0.00 71 1008.7
20260509103656 45 87 0.0 0.9 0.00 0.00 0.00 71 1008.7
20260509103153 45 87 0.9 0.9 0.00 0.00 0.00 70 1008.5
20260509102651 45 87 0.0 0.9 0.00 0.00 0.00 71 1008.5
20260509102148 45 87 0.9 0.9 0.00 0.00 0.00 70 1008.5
20260509101644 45 87 0.9 0.9 0.00 0.00 0.00 70 1008.5
20260509101141 45 86 0.9 0.9 0.00 0.00 0.00 70 1008.4
20260509100638 44 86 0.9 0.9 0.00 0.00 0.00 69 1008.5
20260509100135 44 86 0.0 0.0 0.00 0.00 0.00 67 1008.4
20260509095632 44 86 0.0 0.0 0.00 0.00 0.00 69 1008.5
20260509095129 44 86 0.0 0.0 0.00 0.00 0.00 70 1008.5
20260509094626 44 86 0.0 0.0 0.00 0.00 0.00 69 1008.5
20260509094123 44 86 0.0 0.9 0.00 0.00 0.00 67 1008.6
20260509093622 44 86 0.9 0.9 0.00 0.00 0.00 66 1008.5
20260509093118 44 86 0.9 0.9 0.00 0.00 0.00 64 1008.5
20260509092616 44 86 0.9 0.9 0.00 0.00 0.00 64 1008.5
20260509092114 44 86 0.9 0.9 0.00 0.00 0.00 64 1008.7
20260509091612 44 85 0.9 0.9 0.00 0.00 0.00 64 1008.4
20260509091108 44 85 0.9 1.7 0.00 0.00 0.00 64 1008.7
20260509090606 44 85 0.9 0.9 0.00 0.00 0.00 65 1008.7
20260509085600 43 85 0.0 0.9 0.00 0.00 0.00 65 1008.5
20260509085056 43 85 0.9 0.9 0.00 0.00 0.00 64 1008.7
20260509084553 44 85 0.9 0.9 0.00 0.00 0.00 64 1008.7
20260509084050 44 85 0.9 0.9 0.00 0.00 0.00 62 1008.7
20260509083548 44 85 0.9 0.9 0.00 0.00 0.00 62 1008.7
20260509083044 44 85 0.9 0.9 0.00 0.00 0.00 62 1008.8
20260509082542 44 85 0.9 1.7 0.00 0.00 0.00 62 1008.9
20260509082039 44 85 0.9 0.9 0.00 0.00 0.00 61 1008.7
20260509081536 44 85 0.9 0.9 0.00 0.00 0.00 62 1008.7
20260509081032 44 85 0.9 0.9 0.00 0.00 0.00 61 1009.0
20260509080531 44 85 0.9 0.9 0.00 0.00 0.00 61 1009.0
20260509080029 44 85 0.9 0.9 0.00 0.00 0.00 62 1008.9
20260509075525 44 85 0.9 0.9 0.00 0.00 0.00 62 1009.1
20260509075024 44 85 0.9 0.9 0.00 0.00 0.00 62 1008.9
20260509074520 44 85 0.9 0.9 0.00 0.00 0.00 63 1008.9
20260509074017 44 85 0.0 0.9 0.00 0.00 0.00 63 1009.1
20260509073513 43 85 0.9 0.9 0.00 0.00 0.00 64 1009.1
20260509073010 43 85 0.9 0.9 0.00 0.00 0.00 66 1009.3
20260509072506 43 85 0.9 0.9 0.00 0.00 0.00 68 1009.4
20260509072003 42 85 0.9 0.9 0.00 0.00 0.00 72 1009.2
20260509071500 42 85 0.0 0.9 0.00 0.00 0.00 73 1009.6
20260509070958 42 85 0.9 0.9 0.00 0.00 0.00 70 1009.3
20260509070454 42 85 0.9 0.9 0.00 0.00 0.00 73 1009.4
20260509065950 42 85 0.0 0.0 0.00 0.00 0.00 71 1009.6
20260509065446 43 85 0.0 0.0 0.00 0.00 0.00 67 1009.5
20260509064942 43 85 0.9 0.9 0.00 0.00 0.00 67 1009.6
20260509064440 43 85 0.9 0.9 0.00 0.00 0.00 66 1009.8
20260509063938 43 85 0.9 0.9 0.00 0.00 0.00 66 1009.8
20260509063439 43 85 0.9 0.9 0.00 0.00 0.00 67 1009.9
20260509062936 43 85 0.9 0.9 0.00 0.00 0.00 68 1009.7
20260509062433 43 85 0.0 0.0 0.00 0.00 0.00 67 1010.1
20260509061931 43 85 0.9 0.9 0.00 0.00 0.00 66 1010.2
20260509061428 43 85 0.9 0.9 0.00 0.00 0.00 67 1010.1
20260509060925 44 85 0.9 0.9 0.00 0.00 0.00 67 1010.1
20260509060423 43 85 0.9 0.9 0.00 0.00 0.00 66 1010.1
20260509055917 43 85 0.9 0.9 0.00 0.00 0.00 67 1010.2
20260509055413 43 85 0.9 0.9 0.00 0.00 0.00 67 1010.2
20260509054910 43 85 0.9 0.9 0.00 0.00 0.00 67 1010.2
20260509054407 43 85 0.0 0.9 0.00 0.00 0.00 68 1010.3
20260509053905 43 85 0.9 0.9 0.00 0.00 0.00 69 1010.4
20260509053402 43 84 0.9 0.9 0.00 0.00 0.00 71 1010.4
20260509052900 43 84 0.9 0.9 0.00 0.00 0.00 71 1010.3
20260509052357 43 84 0.9 0.9 0.00 0.00 0.00 74 1010.5
20260509051855 43 84 0.0 0.9 0.00 0.00 0.00 70 1010.6
20260509051353 43 84 0.9 0.9 0.00 0.00 0.00 72 1010.8
20260509050849 43 84 0.9 0.9 0.00 0.00 0.00 73 1010.7
20260509050346 43 84 0.0 0.9 0.00 0.00 0.00 75 1010.7
20260509045843 43 84 0.0 0.9 0.00 0.00 0.00 74 1010.9
20260509045340 42 84 0.0 0.9 0.00 0.00 0.00 76 1010.9
20260509044837 43 84 0.0 0.0 0.00 0.00 0.00 80 1011.1
20260509044335 43 84 0.0 0.0 0.00 0.00 0.00 76 1010.9
20260509043831 43 84 0.0 0.0 0.00 0.00 0.00 78 1011.1
20260509043327 43 84 0.0 0.0 0.00 0.00 0.00 79 1011.0
20260509042823 43 84 0.0 0.0 0.00 0.00 0.00 78 1011.2
20260509042320 43 84 0.0 0.0 0.00 0.00 0.00 79 1011.2
20260509041816 42 84 0.0 0.0 0.00 0.00 0.00 82 1011.3
20260509041314 42 84 0.9 0.9 0.00 0.00 0.00 86 1011.2
20260509040812 42 84 0.0 0.9 0.00 0.00 0.00 84 1011.2
20260509040309 42 84 0.0 0.9 0.00 0.00 0.00 82 1011.2
20260509035806 42 84 0.9 0.9 0.00 0.05 0.05 85 1011.3
20260509035306 42 84 0.0 0.0 0.00 0.05 0.05 86 1011.3
20260509034759 42 84 0.0 0.0 0.00 0.05 0.05 85 1011.3
20260509034257 42 84 0.0 0.0 0.00 0.05 0.05 85 1011.3
20260509033754 42 84 0.0 0.0 0.00 0.05 0.05 86 1011.2
20260509033251 42 84 0.0 0.0 0.00 0.05 0.05 86 1011.3
20260509032748 42 84 0.0 0.0 0.00 0.05 0.05 87 1011.5
20260509032244 42 84 0.0 0.0 0.00 0.05 0.05 87 1011.3
20260509031742 42 84 0.0 0.0 0.00 0.05 0.05 87 1011.6
20260509031240 43 84 0.0 0.0 0.00 0.05 0.05 87 1011.5
20260509030737 43 84 0.0 0.0 0.00 0.05 0.05 84 1011.4
20260509030235 43 84 0.0 0.0 0.00 0.05 0.05 83 1011.6
20260509025732 43 84 0.0 0.0 0.00 0.05 0.05 85 1011.3
20260509025227 43 84 0.0 0.0 0.00 0.05 0.05 82 1011.5
20260509024722 43 84 0.0 0.0 0.00 0.05 0.05 82 1011.5
20260509024218 44 84 0.9 0.9 0.00 0.05 0.05 85 1011.5
20260509023716 44 84 0.0 0.0 0.00 0.05 0.05 76 1011.5
20260509023213 44 84 0.0 0.0 0.00 0.05 0.05 74 1011.4
20260509022709 44 84 0.0 0.0 0.00 0.05 0.05 75 1011.5
20260509022207 45 84 0.0 0.0 0.00 0.05 0.05 77 1011.2
20260509021704 45 84 0.0 0.0 0.00 0.05 0.05 72 1011.5
20260509021201 45 84 0.0 0.0 0.00 0.05 0.05 72 1011.4
20260509020659 45 84 0.0 0.0 0.00 0.05 0.05 73 1011.4
20260509020156 45 84 0.0 0.0 0.00 0.05 0.05 74 1011.5
20260509015654 45 84 0.0 0.0 0.00 0.05 0.05 73 1011.2
20260509015152 46 84 0.0 0.0 0.00 0.05 0.05 77 1011.6
20260509014648 46 84 0.0 0.0 0.00 0.05 0.05 73 1011.6
20260509014145 46 84 0.0 0.0 0.00 0.05 0.05 73 1011.7
20260509013642 46 84 0.0 0.0 0.00 0.05 0.05 74 1011.5
20260509013138 47 84 0.0 0.0 0.00 0.05 0.05 74 1011.6
20260509012634 47 84 0.0 0.0 0.00 0.05 0.05 72 1011.5
20260509012131 47 84 0.0 0.0 0.00 0.05 0.05 72 1011.2
20260509011630 47 84 0.0 0.0 0.00 0.05 0.05 76 1011.7
20260509011126 47 84 0.0 0.0 0.00 0.05 0.05 76 1011.3
20260509010624 47 84 0.0 0.0 0.00 0.05 0.05 75 1011.3
20260509010120 48 84 0.0 0.0 0.00 0.05 0.05 71 1011.2
20260509005618 48 84 0.0 0.0 0.00 0.05 0.05 71 1011.2
20260509005113 49 84 0.0 0.0 0.00 0.05 0.05 68 1011.0
20260509004610 49 84 0.0 0.0 0.00 0.05 0.05 66 1011.2
20260509004107 49 84 0.0 0.0 0.00 0.05 0.05 64 1010.9
20260509003605 50 84 0.0 0.0 0.00 0.05 0.05 63 1010.9
20260509003102 50 84 0.0 0.0 0.00 0.05 0.05 65 1010.8
20260509002600 50 84 0.0 0.0 0.00 0.05 0.05 62 1010.7
20260509002057 51 84 0.0 0.0 0.00 0.05 0.05 59 1010.7
20260509001554 51 84 0.0 0.0 0.00 0.05 0.05 59 1010.8
20260509001050 51 84 0.0 0.0 0.00 0.05 0.05 60 1010.8
20260509000549 52 84 0.0 0.9 0.00 0.05 0.05 55 1010.8
20260509000044 52 84 0.0 0.9 0.00 0.05 0.05 54 1010.7
20260508235542 53 84 0.9 0.9 0.00 0.05 0.05 52 1010.7
20260508235038 53 84 0.0 0.0 0.00 0.05 0.05 51 1010.8
20260508234536 53 84 0.0 0.0 0.00 0.05 0.05 49 1010.6
20260508234032 53 84 0.0 0.0 0.00 0.05 0.05 49 1010.7
20260508233532 53 84 0.0 0.9 0.00 0.05 0.05 47 1010.7
20260508233029 53 84 0.0 0.9 0.00 0.05 0.05 49 1010.6
20260508232526 53 85 0.0 0.0 0.00 0.05 0.05 49 1010.6
20260508232023 53 87 0.0 0.0 0.00 0.05 0.05 49 1010.7
20260508231520 53 87 0.0 0.0 0.00 0.05 0.05 46 1010.6
20260508231017 53 80 0.0 0.0 0.00 0.05 0.05 47 1010.6
20260508230514 54 80 0.0 1.7 0.00 0.05 0.05 45 1010.7
20260508230010 54 80 0.9 0.9 0.00 0.05 0.05 44 1010.7
20260508225508 54 80 0.0 0.9 0.00 0.05 0.05 43 1010.7
20260508225004 54 83 0.9 0.9 0.00 0.05 0.05 40 1010.7
20260508224502 54 83 0.9 0.9 0.00 0.05 0.05 45 1010.6
20260508223959 54 84 1.7 2.6 0.00 0.05 0.05 44 1010.7
20260508223457 54 58 0.9 2.6 0.00 0.05 0.05 45 1010.7
20260508222954 55 23 0.0 1.7 0.00 0.05 0.05 42 1010.5
20260508222452 55 16 0.0 0.0 0.00 0.05 0.05 41 1010.6
20260508221948 55 16 0.9 0.9 0.00 0.05 0.05 42 1010.8
20260508221444 55 6 0.9 0.9 0.00 0.05 0.05 41 1010.7
20260508220940 55 6 0.0 0.0 0.00 0.05 0.05 39 1010.8
20260508220437 55 6 0.0 1.7 0.00 0.05 0.05 39 1010.6
20260508215933 55 0 2.6 2.6 0.00 0.05 0.05 37 1010.9
20260508215431 55 353 0.0 1.7 0.00 0.05 0.05 40 1010.9
20260508214927 54 343 0.0 0.9 0.00 0.05 0.05 42 1010.8
20260508214425 55 343 0.0 0.9 0.00 0.05 0.05 39 1010.8
20260508213920 55 341 0.9 0.9 0.00 0.05 0.05 42 1010.8
20260508213418 55 341 0.0 1.7 0.00 0.05 0.05 42 1010.9
20260508212913 55 339 1.7 2.6 0.00 0.05 0.05 37 1011.0
20260508212410 55 31 1.7 3.5 0.00 0.05 0.05 41 1010.8
20260508211906 55 59 0.0 0.9 0.00 0.05 0.05 40 1011.0
20260508211402 55 323 0.0 0.9 0.00 0.05 0.05 39 1010.8
20260508210900 56 351 3.5 5.2 0.00 0.05 0.05 38 1010.9
20260508210356 56 26 1.7 2.6 0.00 0.05 0.05 40 1010.8
20260508205852 56 16 0.0 1.7 0.00 0.05 0.05 42 1011.0
20260508205349 55 28 3.5 3.5 0.00 0.05 0.05 37 1011.0
20260508204845 55 19 0.9 2.6 0.00 0.05 0.05 37 1011.3
20260508204343 55 347 0.9 1.7 0.00 0.05 0.05 38 1011.3
20260508203838 55 23 0.9 1.7 0.00 0.05 0.05 42 1011.1
20260508203335 55 77 0.9 0.9 0.00 0.05 0.05 43 1011.2
20260508202830 56 33 1.7 1.7 0.00 0.05 0.05 41 1011.3
20260508202328 57 14 3.5 3.5 0.00 0.05 0.05 38 1011.2
20260508201825 56 4 0.0 1.7 0.00 0.05 0.05 38 1011.3
20260508201322 57 23 1.7 2.6 0.00 0.05 0.05 40 1011.2
20260508200818 56 14 0.9 1.7 0.00 0.05 0.05 40 1011.5
20260508200315 57 349 1.7 3.5 0.00 0.05 0.05 35 1011.3
20260508195811 57 224 1.7 3.5 0.00 0.05 0.05 40 1011.4
20260508195308 55 7 0.0 0.0 0.00 0.05 0.05 48 1011.7
20260508194804 54 8 2.6 2.6 0.00 0.05 0.05 44 1011.8
20260508194301 55 358 0.0 2.6 0.00 0.05 0.05 41 1012.0
20260508193758 55 335 1.7 2.6 0.00 0.05 0.05 42 1012.0
20260508193255 55 338 1.7 1.7 0.00 0.05 0.05 45 1012.1
20260508192751 54 3 2.6 2.6 0.00 0.05 0.05 51 1012.1
20260508192248 54 344 2.6 3.5 0.00 0.05 0.05 52 1012.2
20260508191746 53 329 0.0 1.7 0.00 0.05 0.05 58 1012.3
20260508191243 52 328 1.7 2.6 0.00 0.05 0.05 61 1012.4
20260508190740 52 338 2.6 6.1 0.00 0.05 0.05 60 1012.5
20260508190236 52 333 3.5 5.2 0.00 0.05 0.05 63 1012.6
20260508185732 52 354 2.6 6.1 0.00 0.05 0.05 59 1012.4
20260508185230 52 20 2.6 3.5 0.00 0.05 0.05 61 1012.4
20260508184727 53 338 2.6 2.6 0.00 0.05 0.05 62 1012.5
20260508184224 52 353 2.6 2.6 0.00 0.05 0.05 65 1012.5
20260508183721 51 68 0.9 0.9 0.00 0.05 0.05 65 1012.3
20260508183217 52 51 0.9 7.0 0.00 0.05 0.05 67 1012.4
20260508182713 52 346 1.7 1.7 0.00 0.05 0.05 65 1012.2
20260508182210 51 330 1.7 1.7 0.00 0.05 0.05 69 1012.5
20260508181706 52 1 0.0 3.5 0.00 0.05 0.05 67 1012.6
20260508181203 51 11 1.7 2.6 0.00 0.05 0.05 66 1012.5
20260508180700 52 358 1.7 5.2 0.00 0.05 0.05 64 1012.5
20260508180157 51 42 2.6 3.5 0.00 0.05 0.05 66 1012.7
20260508175653 51 26 2.6 5.2 0.00 0.05 0.05 63 1012.5
20260508175149 53 357 3.5 5.2 0.00 0.05 0.05 62 1012.4
20260508174648 55 342 2.6 3.5 0.00 0.05 0.05 56 1012.5
20260508174144 54 228 0.9 2.6 0.00 0.05 0.05 45 1012.5
20260508173641 54 306 0.9 1.7 0.00 0.05 0.05 49 1012.4
20260508173137 53 297 0.9 2.6 0.00 0.05 0.05 45 1012.5
20260508172634 54 310 1.7 2.6 0.00 0.05 0.05 47 1012.5
20260508172131 54 313 0.0 1.7 0.00 0.05 0.05 47 1012.6
20260508171628 55 211 0.9 3.5 0.00 0.05 0.05 47 1012.6
20260508171124 54 250 1.7 1.7 0.00 0.05 0.05 53 1012.6
20260508170621 53 220 2.6 2.6 0.00 0.05 0.05 45 1012.7
20260508170119 53 232 0.9 3.5 0.00 0.05 0.05 50 1012.6
20260508165616 53 3 4.3 5.2 0.00 0.05 0.05 52 1012.7
20260508165113 53 181 3.5 3.5 0.00 0.05 0.05 51 1012.8
20260508164609 52 233 0.9 1.7 0.00 0.05 0.05 53 1012.8
20260508164106 52 259 2.6 2.6 0.00 0.05 0.05 55 1012.8
20260508163603 52 237 2.6 2.6 0.00 0.05 0.05 57 1013.0
20260508163100 51 224 3.5 3.5 0.00 0.05 0.05 59 1013.1
20260508162556 52 246 1.7 2.6 0.00 0.05 0.05 56 1013.0
20260508162054 51 256 0.9 2.6 0.00 0.05 0.05 56 1013.1
20260508161550 51 230 0.0 0.9 0.00 0.05 0.05 57 1013.1
20260508161048 53 225 0.9 3.5 0.00 0.05 0.05 51 1013.2
20260508160546 52 228 1.7 2.6 0.00 0.05 0.05 56 1013.3
20260508160043 52 285 1.7 1.7 0.00 0.05 0.05 57 1013.2
20260508155540 50 148 0.0 0.9 0.00 0.05 0.05 64 1013.4
20260508155037 50 230 0.9 0.9 0.00 0.05 0.05 60 1013.4
20260508154534 50 227 1.7 1.7 0.00 0.05 0.05 62 1013.4
20260508154031 50 225 1.7 3.5 0.00 0.05 0.05 59 1013.6
20260508153527 49 257 0.0 0.9 0.00 0.05 0.05 60 1013.5
20260508153024 49 250 1.7 1.7 0.00 0.05 0.05 61 1013.6
20260508152521 48 239 0.0 0.0 0.00 0.05 0.05 69 1013.6
20260508152017 48 239 0.9 0.9 0.00 0.05 0.05 65 1013.4
20260508151514 48 301 1.7 1.7 0.00 0.05 0.05 65 1013.2
20260508151010 48 295 1.7 1.7 0.00 0.05 0.05 59 1013.3
20260508150508 49 234 1.7 1.7 0.00 0.05 0.05 66 1013.3
20260508150004 48 294 0.0 0.9 0.00 0.05 0.05 72 1013.5
20260508145500 47 216 0.9 0.9 0.00 0.05 0.05 72 1013.5
20260508144956 47 212 1.7 2.6 0.00 0.05 0.05 72 1013.5
20260508144454 47 250 0.9 1.7 0.00 0.05 0.05 74 1013.2
20260508143951 47 260 0.0 2.6 0.00 0.05 0.05 74 1013.2
20260508143449 48 227 2.6 2.6 0.00 0.05 0.05 72 1013.5
20260508142945 47 241 0.9 1.7 0.00 0.05 0.05 77 1013.4
20260508142442 47 238 0.9 1.7 0.00 0.05 0.05 79 1013.3
20260508141938 47 226 3.5 5.2 0.00 0.05 0.05 79 1013.4
20260508141435 45 252 1.7 1.7 0.00 0.05 0.05 79 1013.3
20260508140933 45 229 1.7 2.6 0.00 0.05 0.05 81 1013.2
20260508140430 46 232 2.6 2.6 0.00 0.05 0.05 79 1013.3
20260508135925 45 263 0.9 0.9 0.00 0.05 0.05 83 1013.2
20260508135422 44 264 0.0 1.7 0.00 0.05 0.05 84 1013.3
20260508134919 44 246 0.0 0.9 0.00 0.05 0.05 83 1013.3
20260508134415 45 288 1.7 1.7 0.00 0.05 0.05 82 1013.3
20260508133912 45 241 0.9 1.7 0.00 0.05 0.05 85 1013.2
20260508133410 45 235 1.7 3.5 0.00 0.05 0.05 83 1013.1
20260508132906 45 233 1.7 1.7 0.00 0.05 0.05 85 1013.2
20260508132405 43 231 0.9 0.9 0.00 0.05 0.05 91 1013.1
20260508131901 43 233 0.9 0.9 0.00 0.05 0.05 88 1012.9
20260508131356 43 238 0.9 2.6 0.00 0.05 0.05 90 1013.1
20260508130853 42 291 2.6 2.6 0.00 0.05 0.05 90 1013.4
20260508130350 41 323 0.9 0.9 0.00 0.05 0.05 93 1013.4
20260508125846 41 326 0.0 1.7 0.00 0.05 0.05 94 1013.3
20260508125342 40 14 0.9 1.7 0.00 0.05 0.05 96 1013.4
20260508124840 39 14 0.9 0.9 0.07 0.05 0.05 95 1013.4
20260508124337 39 14 0.0 0.0 0.07 0.05 0.05 94 1013.4
20260508123836 39 14 0.9 0.9 0.07 0.04 0.04 94 1013.6
20260508123334 39 14 0.0 0.0 0.19 0.04 0.04 93 1013.5
20260508122830 40 359 0.9 1.7 0.07 0.02 0.02 90 1013.5
20260508122327 42 350 1.7 3.5 0.00 0.01 0.01 87 1013.7
20260508121824 42 307 1.7 1.7 0.00 0.01 0.01 91 1013.4
20260508121322 42 308 0.9 1.7 0.00 0.01 0.01 91 1013.3
20260508120819 42 308 0.0 0.9 0.00 0.01 0.01 92 1013.3
20260508120317 42 308 0.9 0.9 0.05 0.01 0.01 92 1013.4
20260508115814 43 308 0.9 1.7 0.00 0.00 0.00 94 1013.2
20260508115312 43 308 0.0 0.9 0.00 0.00 0.00 95 1013.1
20260508114809 42 308 0.0 1.7 0.00 0.00 0.00 95 1013.0
20260508114306 42 308 0.0 0.0 0.00 0.00 0.00 96 1013.1
20260508113802 42 308 0.0 0.0 0.00 0.00 0.00 96 1012.9
20260508113300 42 308 0.0 0.0 0.00 0.00 0.00 97 1012.8
20260508112756 42 308 0.0 0.0 0.00 0.00 0.00 97 1012.6